Location: Most
(50.5330°N, 13.6500°E)
Time: 19:05:42
(UTC+02:00)

ISS - Pass Details

Date: 21 May 2021
Orbit: 417 x 422 km, 51.6° (Epoch: 16 June)

Event Time Altitude Azimuth Distance (km) Brightness Sun altitude
Rises 00:31:59 0° 285° (WNW) 2,370 0.4 -19.0°
Reaches altitude 10° 00:34:05 10° 283° (WNW) 1,505 -0.7 -19.0°
Enters shadow 00:37:16 68° 228° (SW) 457 -3.8 -19.1°
